This is the latest recevied weather packets stored in our database for station/object AC1IX. If no packets are shown the sender has not sent any weather packets the latest 10 day(s).
| Time | Temp. | Humidity | Pressure | Rain* | Wind** | Luminosity | Snow |
|---|---|---|---|---|---|---|---|
| 1778078766 | 15° C | 94% | 1009.2 hPa | 1.78 mm | - | 47 W/m² | - |
| 1778078462 | 15.56° C | 91% | 1009.2 hPa | 0 mm | - | 53 W/m² | - |
| 1778078161 | 16.11° C | 89% | 1009.1 hPa | 0 mm | - | 57 W/m² | - |
| 1778077858 | 16.67° C | 88% | 1009.1 hPa | 0 mm | - | 51 W/m² | - |
| 1778077556 | 16.67° C | 86% | 1009.2 hPa | 0 mm | - | 43 W/m² | - |
| 1778077254 | 16.67° C | 85% | 1009 hPa | 0 mm | - | 42 W/m² | - |
| 1778076951 | 17.22° C | 85% | 1009.1 hPa | 0 mm | - | 45 W/m² | - |
| 1778076650 | 17.22° C | 84% | 1008.9 hPa | 0 mm | - | 60 W/m² | - |
| 1778076347 | 17.22° C | 83% | 1008.9 hPa | 0 mm | - | 62 W/m² | - |
| 1778076044 | 17.22° C | 83% | 1008.7 hPa | 0 mm | - | 82 W/m² | - |
| 1778075741 | 17.78° C | 83% | 1008.7 hPa | 0 mm | - | 107 W/m² | - |
| 1778075437 | 17.78° C | 82% | 1008.7 hPa | 0 mm | - | 140 W/m² | - |
| 1778075133 | 17.78° C | 84% | 1008.7 hPa | 0 mm | - | 150 W/m² | - |
| 1778074829 | 17.78° C | 82% | 1008.6 hPa | 0 mm | - | 138 W/m² | - |
| 1778074527 | 17.78° C | 82% | 1008.3 hPa | 0 mm | - | 129 W/m² | - |
| 1778074224 | 17.78° C | 81% | 1008.2 hPa | 0 mm | - | 223 W/m² | - |
| 1778073921 | 17.78° C | 82% | 1008.4 hPa | 0 mm | - | 328 W/m² | - |
| 1778073618 | 17.78° C | 83% | 1008.4 hPa | 0 mm | - | 237 W/m² | - |
| 1778073315 | 17.22° C | 85% | 1008.5 hPa | 0 mm | - | 193 W/m² | - |
| 1778073012 | 16.67° C | 84% | 1008.4 hPa | 0 mm | - | 200 W/m² | - |
| 1778072709 | 16.67° C | 85% | 1008.5 hPa | 0 mm | - | 142 W/m² | - |
| 1778072406 | 16.67° C | 85% | 1008.8 hPa | 0 mm | - | 129 W/m² | - |
| 1778072104 | 16.67° C | 87% | 1008.6 hPa | 0 mm | - | 109 W/m² | - |
| 1778071801 | 16.11° C | 85% | 1009 hPa | 0 mm | - | 78 W/m² | - |
| 1778071499 | 16.11° C | 85% | 1009.2 hPa | 0 mm | - | 71 W/m² | - |
* Rain latest hour (hover to see other rain measurements)
** Current wind speed in m/s (hover to see current wind gust speed)